SCP
0 0 0 0 0 0 0 0 0 0 0 0 0 0 0 0 0 0 0 0 0 0 0 0 0 0 0 0 1 1 1 0
0 0 0 0 0 0 0 0 0 0 0 0 0 0 0 0 0 0 0 0 0 0 0 0 0 0 0 0 0 0 0 0
0 0 0 0 0 0 0 0 0 0 0 0 0 0 0 0 0 0 0 0 0 0 0 0 0 0 0 0 0 0 0 0
0 0 0 0 0 0 -0 0 0 0 0 0 0 0 0 0 0 0 0 0 0 0 0 0 0 0 0 0 0 0 0 0
0 0 0 0 0 0 0 0 0 0 0 0 0 0 0 0 0 0 0 0 0 0 0 0 0 0 0 0 0 0 0 0
0 0 0 0 0 0 0 0 0 0 0 0 0 0 0 0 0 0 0 0 0 0 0 0 0 0 0 0 0 0 0 0
0 0 0 0 -0 -0 -0 0 0 0 0 0 0 0 0 0 0 0 0 0 0 0 0 0 0 0 0 0 0 0 0 0
0 0 0 0 0 0 0 0 -0 0 0 0 0 0 0 0 0 0 0 0 0 0 0 0 0 0 0 0 0 0 -0 0
0 0 0 0 0 0 0 0 0 0 0 0 0 0 0 0 0 0 0 0 0 0 0 0 0 0 0 0 0 0 0 0
0 0 0 0 0 0 0 0 0 0 0 0 0 0 0 0 0 0 0 0 0 0 0 0 0 0 0 0 0 -0 0 0
-0 0 0 0 0 0 0 0 0 0 0 0 0 0 0 0 0 0 0 0 0 0 0 0 0 0 0 0 0 0 0 0
0 0 0 0 0 0 0 0 0 0 0 0 0 0 0 0 0 0 0 0 0 0 0 0 0 0 0 0 0 0 0 -0
0 0 0 0 0 0 0 0 0 -0 -0 0 0 0 0 0 0 0 0 0 0 0 0 0 0 0 0 -0 -0 -0 -0 0
0 0 -0 -0 0 0 0 0 -0 0 0 0 0 0 0 0 0 0 0 0 0 0 0 0 0 0 -0 -0 -0 -0 0 0
0 0 0 -0 -0 -0 0 0 0 0 0 0 0 0 0 0 0 0 0 0 0 -0 0 0 0 0 -0 0 -0 -0 0 0
0 0 0 0 0 0 -0 0 0 0 0 0 0 0 0 0 0 0 0 0 0 0 0 0 0 0 0 0 -0 0 0 0
0 0 0 0 0 0 0 0 -0 0 -0 0 0 0 0 0 0 0 0 0 0 0 -0 -0 -0 0 0 0 0 0 0 0
0 0 0 0 0 0 0 -0 -0 -0 -0 -0 -0 -0 -0 -0 -0 -0 0 0 0 0 0 0 0 0 0 0 0 0 0 0
0 0 0 0 0 0 0 0 0 0 0 0 0 -0 -0 -0 -0 0 0 0 0 0 0 0 -0 0 0 0 0 0 0 0
0 0 0 0 0 0 0 0 0 0 0 0 0 0 0 0 0 0 0 0 0 0 0 0 -0 0 0 0 0 0 0 0
Wind_Speed_500mb
58 53 48 42 26 24 40 68 68 63 61 61 57 53 47 40 38 35 34 37 34 30 29 30 33 35 36 42 46 47 54 61
44 70 62 60 47 36 38 40 73 75 74 69 68 63 53 43 38 41 40 37 37 39 41 43 44 45 48 51 52 54 56 58
39 46 60 73 66 44 52 52 49 55 62 64 62 55 52 53 51 50 49 47 43 40 42 47 48 52 53 56 61 59 56 57
53 48 43 45 51 41 39 44 31 40 62 72 69 67 61 59 57 55 56 55 51 53 56 52 50 52 54 58 64 62 60 57
53 54 38 37 35 32 39 38 37 41 43 46 51 56 59 59 58 62 63 63 68 68 65 66 67 65 61 63 65 65 62 59
50 57 68 71 72 71 70 71 68 68 67 66 66 65 67 68 70 74 74 71 73 79 85 83 81 79 70 68 71 66 55 60
87 84 91 102 106 103 86 91 94 88 96 94 87 82 80 77 80 82 82 79 78 82 85 94 96 85 67 61 65 64 55 61
77 83 90 92 101 106 112 123 107 100 105 94 84 88 87 86 84 80 80 78 83 83 87 87 88 78 61 49 59 67 54 61
93 101 101 100 96 97 105 109 114 119 103 96 92 88 85 84 76 74 73 71 73 75 76 73 70 66 57 49 61 63 60 61
102 105 105 105 102 99 101 105 97 92 83 84 88 84 84 78 82 84 75 75 75 75 75 71 64 62 61 46 62 62 60 63
96 93 100 97 101 107 106 103 95 93 92 98 94 90 89 90 84 78 76 77 78 82 74 78 73 51 55 49 61 62 65 60
92 93 100 100 96 97 98 90 85 82 83 74 77 76 78 78 77 80 81 82 73 67 71 69 66 55 59 52 62 61 54 56
90 89 96 96 84 89 87 92 87 82 82 80 79 77 80 82 83 83 80 77 75 68 62 57 55 53 59 58 54 48 47 49
89 83 79 86 84 83 79 68 77 79 73 68 64 62 64 65 67 66 65 63 60 63 64 60 61 54 54 61 55 44 46 41
75 55 58 47 37 67 59 52 71 66 75 67 64 69 66 63 65 65 60 55 55 56 54 56 60 52 48 49 48 45 40 33
57 52 53 43 30 24 32 42 58 59 66 61 66 62 64 59 58 55 56 51 54 56 55 55 58 56 52 46 44 37 33 50
47 50 46 37 29 23 29 39 51 52 55 66 63 59 58 59 56 55 52 52 50 47 44 49 54 54 49 49 38 37 54 54
45 47 44 37 29 21 25 34 44 48 45 52 57 55 47 49 54 54 50 49 44 39 33 35 40 44 51 44 34 55 57 52
41 38 29 27 23 23 35 41 38 35 44 45 46 48 50 50 50 49 48 48 46 43 36 22 20 33 38 38 60 56 62 64
50 37 27 20 17 13 10 16 20 25 29 35 43 45 44 46 43 46 48 50 47 49 34 27 26 28 40 68 67 66 57 61
Wind_Direction_500mb
266 282 296 317 320 329 248 223 218 220 220 219 219 218 224 239 249 258 257 250 249 256 264 272 281 282 283 289 291 292 288 280
259 260 277 283 294 300 305 282 238 229 232 237 233 225 232 238 250 253 259 258 250 254 262 266 268 277 286 293 298 292 290 282
308 289 268 270 266 286 284 281 253 239 230 231 227 231 234 234 238 242 248 251 255 264 275 272 268 269 276 290 295 298 292 291
304 301 294 280 265 260 272 266 254 243 239 235 233 235 236 240 245 249 249 248 258 268 276 277 272 270 275 284 292 294 291 301
293 296 277 277 268 262 259 259 253 256 246 234 229 232 236 239 243 248 253 259 264 270 274 276 280 277 277 276 281 287 288 291
288 283 282 282 285 279 279 276 272 269 266 257 250 248 246 244 246 249 253 258 263 268 272 276 278 278 273 272 277 282 282 282
285 281 279 279 278 278 279 277 276 275 269 263 260 258 256 254 255 257 263 270 274 275 277 278 277 276 265 263 269 275 277 273
265 275 273 266 268 273 271 269 270 266 263 260 257 257 253 254 259 261 266 269 271 274 275 276 271 270 253 255 261 267 280 272
278 279 270 262 263 261 258 260 261 260 259 258 258 254 252 254 257 261 263 257 258 263 268 273 263 259 248 255 254 263 271 270
276 272 267 264 259 252 251 248 248 247 248 246 246 245 247 248 257 260 259 253 256 259 262 260 260 254 244 256 249 261 267 266
282 272 267 260 255 253 252 246 243 243 244 240 243 243 244 245 246 251 250 251 253 259 255 253 254 250 244 250 250 259 258 266
286 278 273 266 259 251 246 241 236 232 232 228 227 228 230 234 240 246 247 250 249 246 252 248 250 246 240 247 251 256 264 266
295 284 277 279 274 257 248 236 232 229 227 228 227 229 234 236 239 241 242 244 242 239 240 246 238 239 238 244 249 259 268 261
307 303 291 282 273 259 245 235 221 217 216 210 213 218 222 228 231 231 233 239 241 240 246 241 238 243 244 248 256 264 274 237
337 335 339 336 266 235 230 221 208 208 210 217 215 213 220 222 226 227 229 224 230 234 230 229 236 243 244 250 256 263 260 241
359 360 12 30 68 163 190 193 190 201 208 197 198 213 217 221 221 222 225 229 227 229 229 227 231 236 238 243 249 264 218 208
24 21 26 38 67 107 147 166 180 185 195 201 212 218 220 224 224 223 227 229 235 234 229 229 231 234 233 240 238 230 193 192
35 31 36 44 66 98 145 163 171 179 188 199 206 212 218 220 221 222 217 215 218 231 233 234 233 227 216 209 210 189 187 190
46 48 45 57 68 116 141 150 162 185 194 201 205 204 205 216 218 218 222 223 218 216 206 200 179 202 199 196 183 181 200 202
54 68 75 82 80 99 138 165 179 188 199 208 208 212 207 212 213 211 210 215 207 187 184 179 155 163 176 179 191 201 187 176
Wind_Speed_850mb
58 53 48 42 26 24 40 68 68 63 61 61 57 53 47 40 38 35 34 37 34 30 29 30 33 35 36 42 46 47 54 61
44 70 62 60 47 36 38 40 73 75 74 69 68 63 53 43 38 41 40 37 37 39 41 43 44 45 48 51 52 54 56 58
39 46 60 73 66 44 52 52 49 55 62 64 62 55 52 53 51 50 49 47 43 40 42 47 48 52 53 56 61 59 56 57
53 48 43 45 51 41 39 44 31 40 62 72 69 67 61 59 57 55 56 55 51 53 56 52 50 52 54 58 64 62 60 57
53 54 38 37 35 32 39 38 37 41 43 46 51 56 59 59 58 62 63 63 68 68 65 66 67 65 61 63 65 65 62 59
50 57 68 71 72 71 70 71 68 68 67 66 66 65 67 68 70 74 74 71 73 79 85 83 81 79 70 68 71 66 55 60
87 84 91 102 106 103 86 91 94 88 96 94 87 82 80 77 80 82 82 79 78 82 85 94 96 85 67 61 65 64 55 61
77 83 90 92 101 106 112 123 107 100 105 94 84 88 87 86 84 80 80 78 83 83 87 87 88 78 61 49 59 67 54 61
93 101 101 100 96 97 105 109 114 119 103 96 92 88 85 84 76 74 73 71 73 75 76 73 70 66 57 49 61 63 60 61
102 105 105 105 102 99 101 105 97 92 83 84 88 84 84 78 82 84 75 75 75 75 75 71 64 62 61 46 62 62 60 63
96 93 100 97 101 107 106 103 95 93 92 98 94 90 89 90 84 78 76 77 78 82 74 78 73 51 55 49 61 62 65 60
92 93 100 100 96 97 98 90 85 82 83 74 77 76 78 78 77 80 81 82 73 67 71 69 66 55 59 52 62 61 54 56
90 89 96 96 84 89 87 92 87 82 82 80 79 77 80 82 83 83 80 77 75 68 62 57 55 53 59 58 54 48 47 49
89 83 79 86 84 83 79 68 77 79 73 68 64 62 64 65 67 66 65 63 60 63 64 60 61 54 54 61 55 44 46 41
75 55 58 47 37 67 59 52 71 66 75 67 64 69 66 63 65 65 60 55 55 56 54 56 60 52 48 49 48 45 40 33
57 52 53 43 30 24 32 42 58 59 66 61 66 62 64 59 58 55 56 51 54 56 55 55 58 56 52 46 44 37 33 50
47 50 46 37 29 23 29 39 51 52 55 66 63 59 58 59 56 55 52 52 50 47 44 49 54 54 49 49 38 37 54 54
45 47 44 37 29 21 25 34 44 48 45 52 57 55 47 49 54 54 50 49 44 39 33 35 40 44 51 44 34 55 57 52
41 38 29 27 23 23 35 41 38 35 44 45 46 48 50 50 50 49 48 48 46 43 36 22 20 33 38 38 60 56 62 64
50 37 27 20 17 13 10 16 20 25 29 35 43 45 44 46 43 46 48 50 47 49 34 27 26 28 40 68 67 66 57 61
Wind_Direction_850mb
266 282 296 317 320 329 248 223 218 220 220 219 219 218 224 239 249 258 257 250 249 256 264 272 281 282 283 289 291 292 288 280
259 260 277 283 294 300 305 282 238 229 232 237 233 225 232 238 250 253 259 258 250 254 262 266 268 277 286 293 298 292 290 282
308 289 268 270 266 286 284 281 253 239 230 231 227 231 234 234 238 242 248 251 255 264 275 272 268 269 276 290 295 298 292 291
304 301 294 280 265 260 272 266 254 243 239 235 233 235 236 240 245 249 249 248 258 268 276 277 272 270 275 284 292 294 291 301
293 296 277 277 268 262 259 259 253 256 246 234 229 232 236 239 243 248 253 259 264 270 274 276 280 277 277 276 281 287 288 291
288 283 282 282 285 279 279 276 272 269 266 257 250 248 246 244 246 249 253 258 263 268 272 276 278 278 273 272 277 282 282 282
285 281 279 279 278 278 279 277 276 275 269 263 260 258 256 254 255 257 263 270 274 275 277 278 277 276 265 263 269 275 277 273
265 275 273 266 268 273 271 269 270 266 263 260 257 257 253 254 259 261 266 269 271 274 275 276 271 270 253 255 261 267 280 272
278 279 270 262 263 261 258 260 261 260 259 258 258 254 252 254 257 261 263 257 258 263 268 273 263 259 248 255 254 263 271 270
276 272 267 264 259 252 251 248 248 247 248 246 246 245 247 248 257 260 259 253 256 259 262 260 260 254 244 256 249 261 267 266
282 272 267 260 255 253 252 246 243 243 244 240 243 243 244 245 246 251 250 251 253 259 255 253 254 250 244 250 250 259 258 266
286 278 273 266 259 251 246 241 236 232 232 228 227 228 230 234 240 246 247 250 249 246 252 248 250 246 240 247 251 256 264 266
295 284 277 279 274 257 248 236 232 229 227 228 227 229 234 236 239 241 242 244 242 239 240 246 238 239 238 244 249 259 268 261
307 303 291 282 273 259 245 235 221 217 216 210 213 218 222 228 231 231 233 239 241 240 246 241 238 243 244 248 256 264 274 237
337 335 339 336 266 235 230 221 208 208 210 217 215 213 220 222 226 227 229 224 230 234 230 229 236 243 244 250 256 263 260 241
359 360 12 30 68 163 190 193 190 201 208 197 198 213 217 221 221 222 225 229 227 229 229 227 231 236 238 243 249 264 218 208
24 21 26 38 67 107 147 166 180 185 195 201 212 218 220 224 224 223 227 229 235 234 229 229 231 234 233 240 238 230 193 192
35 31 36 44 66 98 145 163 171 179 188 199 206 212 218 220 221 222 217 215 218 231 233 234 233 227 216 209 210 189 187 190
46 48 45 57 68 116 141 150 162 185 194 201 205 204 205 216 218 218 222 223 218 216 206 200 179 202 199 196 183 181 200 202
54 68 75 82 80 99 138 165 179 188 199 208 208 212 207 212 213 211 210 215 207 187 184 179 155 163 176 179 191 201 187 176